This demonstration page uses our WeatherBlox Daily Observations layout. Learn more.

Left ArrowRight Arrow

Hourly Observations for August 15, 2021

Temp ( °F °C ) Dew Point ( °F °C ) Humidity (%) Winds ( mph kmh ) Pressure ( in mb ) Visibility ( mi km ) Precip ( " mm )
12:15 am 00:15 Mostly Cloudy with Nearby Thunderstorms 71 21.7 63 17.4 77 77 SE 13 20 30.05 1018 10 16 0.00 0.00
12:35 am 00:35 Cloudy with Nearby Thunderstorms 71 21.6 63 17.1 76 76 SE 13 20 30.05 1018 10 16 0.00 0.00
12:55 am 00:55 Partly Cloudy with Light Rain 70 21 64 17.5 81 81 SE 9 15 30.06 1018 10 16 0.00 0.00
1:15 am 01:15 Partly Cloudy 69 20.6 64 17.8 84 84 S 6 9 30.07 1018 10 16 0.00 0.00
1:35 am 01:35 Partly Cloudy with Nearby Thunderstorms 69 20.4 64 17.7 85 85 SSE 7 11 30.07 1018 10 16 0.00 0.00
1:55 am 01:55 Mostly Cloudy with Thunderstorms 69 20.3 64 18 87 87 SSE 5 7 30.07 1018 10 16 0.00 0.00
2:15 am 02:15 Mostly Cloudy with Thunderstorms 68 20 65 18.3 90 90 SE 8 13 30.07 1018 10 16 0.00 0.00
2:35 am 02:35 Partly Cloudy 68 20.2 65 18.5 90 90 SE 12 19 30.05 1017 10 16 0.01 0.25
2:55 am 02:55 Partly Cloudy 69 20.3 65 18.3 88 88 S 12 19 30.03 1017 7 11 0.01 0.25
3:15 am 03:15 Mostly Cloudy with Light Rain 68 20 65 18.5 91 91 S 7 11 30.05 1017 10 16 0.00 0.00
3:35 am 03:35 Mostly Cloudy with Thunderstorms 68 20 65 18.6 92 92 E 7 11 30.05 1017 10 16 0.01 0.25
3:55 am 03:55 Cloudy with Strong Thunderstorms 68 20.1 66 19 93 93 Calm 30.06 1018 3 5 0.13 3.30
4:15 am 04:15 Cloudy 68 20 66 18.8 93 93 SSE 8 13 30.07 1018 5 8 0.17 4.32
4:35 am 04:35 Cloudy with Strong Thunderstorms 68 20 66 18.9 93 93 SW 8 13 30.08 1019 7 11 0.26 6.60
4:55 am 04:55 Cloudy 68 20 67 19.2 95 95 SSE 7 11 30.05 1017 4 6 0.48 12.19
5:15 am 05:15 Cloudy with Nearby Thunderstorms 67 19.7 66 19 96 96 ESE 12 19 30.06 1018 7 11 0.08 2.03
5:35 am 05:35 Cloudy 67 19.7 66 19 96 96 E 6 9 30.08 1019 10 16 0.10 2.54
5:55 am 05:55 Mostly Cloudy with Thunderstorms 67 19.7 66 18.8 95 95 SSE 6 9 30.08 1019 10 16 0.10 2.54
6:15 am 06:15 Mostly Cloudy with Nearby Thunderstorms 67 19.7 66 18.8 95 95 S 12 19 30.07 1018 10 16 0.00 0.00
6:35 am 06:35 Mostly Cloudy with Nearby Thunderstorms 68 20 66 19 94 94 S 14 22 30.07 1018 10 16 0.00 0.00
6:55 am 06:55 Mostly Cloudy 68 20 66 19.1 95 95 S 12 19 30.07 1018 10 16 0.00 0.00
7:15 am 07:15 Mostly Cloudy 68 19.9 65 18.6 92 92 E 9 15 30.10 1019 10 16 0.00 0.00
7:35 am 07:35 Mostly Cloudy 67 19.7 65 18.6 93 93 SSE 5 7 30.08 1019 10 16 0.00 0.00
7:55 am 07:55 Partly Cloudy 67 19.6 65 18.5 93 93 S 9 15 30.06 1018 10 16 0.00 0.00
8:15 am 08:15 Sunny 68 20 65 18.5 91 91 S 10 17 30.05 1017 10 16 0.00 0.00
8:35 am 08:35 Partly Cloudy 69 20.5 65 18.6 89 89 SSW 7 11 30.02 1017 10 16 0.00 0.00
8:55 am 08:55 Sunny 70 21.3 66 18.9 86 86 SSW 7 11 30.01 1016 10 16 0.00 0.00
9:15 am 09:15 Partly Cloudy 74 23.1 66 18.8 77 77 SSE 7 11 29.99 1016 10 16 0.00 0.00
9:35 am 09:35 Partly Cloudy 73 22.6 67 19.3 82 82 SE 9 15 30.02 1016 10 16 0.00 0.00
9:55 am 09:55 Sunny 74 23.2 68 19.8 81 81 S 12 19 30.01 1016 10 16 0.00 0.00
10:15 am 10:15 Sunny 75 24 68 20 78 78 SSE 10 17 29.99 1016 10 16 0.00 0.00
10:35 am 10:35 Sunny 75 24 67 19.2 75 75 S 9 15 29.99 1016 10 16 0.00 0.00
10:55 am 10:55 Partly Cloudy 76 24.6 66 19 71 71 SSE 12 19 29.98 1015 10 16 0.00 0.00
11:15 am 11:15 Partly Cloudy 77 25 67 19.5 72 72 SSE 9 15 29.99 1015 10 16 0.00 0.00
11:35 am 11:35 Partly Cloudy 77 25.2 66 18.7 67 67 S 9 15 29.98 1015 10 16 0.00 0.00
11:55 am 11:55 Partly Cloudy 78 25.6 65 18.4 65 65 SSE 13 20 29.97 1015 10 16 0.00 0.00
12:15 pm 12:15 Sunny 79 26 64 17.8 61 61 SE 14 22 29.96 1015 10 16 0.00 0.00
12:35 pm 12:35 Sunny 80 26.5 65 18.6 62 62 SSE 13 20 29.95 1014 10 16 0.00 0.00
12:55 pm 12:55 Sunny 79 26.2 65 18.6 63 63 SSE 10 17 29.95 1014 10 16 0.00 0.00
1:15 pm 13:15 Sunny 81 27.2 66 19 61 61 SSE 14 22 29.93 1014 10 16 0.00 0.00
1:35 pm 13:35 Sunny 81 27.2 65 18.2 58 58 SSE 15 24 29.93 1014 10 16 0.00 0.00
1:55 pm 13:55 Sunny 82 27.5 64 17.7 55 55 SSE 15 24 29.94 1014 10 16 0.00 0.00
2:15 pm 14:15 Sunny 82 27.9 64 17.9 55 55 SSE 14 22 29.92 1013 10 16 0.00 0.00
2:35 pm 14:35 Sunny 82 28 64 18 55 55 SSE 12 19 29.91 1013 10 16 0.00 0.00
2:55 pm 14:55 Sunny 83 28.2 63 17.4 52 52 SSE 12 19 29.91 1013 10 16 0.00 0.00
3:15 pm 15:15 Sunny 83 28.5 64 18 53 53 SSE 14 22 29.90 1012 10 16 0.00 0.00
3:35 pm 15:35 Sunny 84 28.8 64 17.7 51 51 SSE 15 24 29.89 1012 10 16 0.00 0.00
3:55 pm 15:55 Sunny 84 28.9 64 17.9 51 51 SSE 9 15 29.89 1012 10 16 0.00 0.00
4:15 pm 16:15 Sunny 84 29.1 65 18.3 52 52 SSE 14 22 29.86 1011 10 16 0.00 0.00
4:35 pm 16:35 Sunny 85 29.2 66 18.8 53 53 SSE 13 20 29.86 1011 10 16 0.00 0.00
4:55 pm 16:55 Sunny 85 29.2 66 18.7 53 53 SSE 12 19 29.85 1011 10 16 0.00 0.00
5:15 pm 17:15 Sunny 85 29.4 65 18.5 52 52 SSE 10 17 29.84 1011 10 16 0.00 0.00
5:35 pm 17:35 Sunny 84 29 66 18.7 54 54 SE 13 20 29.85 1011 10 16 0.00 0.00
5:55 pm 17:55 Sunny 83 28.5 66 19 56 56 SSE 12 19 29.85 1011 10 16 0.00 0.00
6:15 pm 18:15 Sunny 82 28 66 19.1 58 58 SE 10 17 29.85 1011 10 16 0.00 0.00
6:35 pm 18:35 Sunny 83 28.2 66 19 57 57 SE 12 19 29.84 1011 10 16 0.00 0.00
6:55 pm 18:55 Sunny 82 27.8 67 19.6 61 61 SE 8 13 29.84 1011 10 16 0.00 0.00
7:15 pm 19:15 Sunny 82 27.9 67 19.6 61 61 SE 9 15 29.84 1011 10 16 0.00 0.00
7:35 pm 19:35 Sunny 81 27.2 68 20 65 65 SSE 8 13 29.85 1011 10 16 0.00 0.00
7:55 pm 19:55 Sunny 80 26.4 67 19.5 66 66 SE 7 11 29.87 1011 10 16 0.00 0.00
8:15 pm 20:15 Sunny 78 25.4 65 18.5 66 66 SSE 9 15 29.87 1012 10 16 0.00 0.00
8:35 pm 20:35 Clear 76 24.3 65 18.6 71 71 SSE 12 19 29.88 1012 10 16 0.00 0.00
8:55 pm 20:55 Clear 74 23.6 65 18.5 73 73 SSE 10 17 29.89 1012 10 16 0.00 0.00
9:15 pm 21:15 Clear 73 23 65 18.6 76 76 SSE 8 13 29.90 1013 10 16 0.00 0.00
9:35 pm 21:35 Clear 72 22.4 66 18.8 80 80 SSE 6 9 29.91 1013 10 16 0.00 0.00
9:55 pm 21:55 Clear 71 21.7 66 18.8 84 84 SSE 6 9 29.92 1013 10 16 0.00 0.00
10:15 pm 22:15 Clear 71 21.5 66 18.8 85 85 SSE 6 9 29.92 1013 10 16 0.00 0.00
10:35 pm 22:35 Clear 70 21.3 65 18.6 85 85 SSE 5 7 29.93 1013 10 16 0.00 0.00
10:55 pm 22:55 Clear 69 20.7 65 18.5 87 87 SE 5 7 29.94 1014 10 16 0.00 0.00
11:15 pm 23:15 Clear 68 20.2 65 18.3 89 89 SE 5 7 29.94 1014 10 16 0.00 0.00
11:35 pm 23:35 Clear 68 20 65 18.3 90 90 SE 5 7 29.94 1014 10 16 0.00 0.00
11:55 pm 23:55 Clear 68 19.8 65 18.3 91 91 SSE 6 9 29.94 1014 10 16 0.00 0.00

Powered by AerisWeather